Powrót do katalogu

NIMBUS 2 DEB

AktywnySSO
NORAD 40647·DEBRIS·🇺🇸 United States

Wystrzelony May 15, 1966 z Vandenberg Space Force Base

Loading…

Następne Przeloty (najbliższe 24 godziny)

TLE

ŚwieżeSource: Space-Track

Epoka: Sep 13, 2026, 23:33 UTC

1 40647U 66040BL  26256.98127601  .00001604  00000-0  27364-2 0  9997
2 40647 100.2769  91.5882 0039002 290.2007  69.4931 13.46353877554402

Śledź NIMBUS 2 DEB w czasie rzeczywistym z AllMySat

Download on the App Store